Tracking 28052 objects as of 23-Sep-2023
HD Live streaming from Space Station
objects crossing your sky now

STARLINK-5422

Track STARLINK-5422 now!
10-day predictions
STARLINK-5422 is classified as:


NORAD ID: 54804
Int'l Code: 2022-175AY
Perigee: 545.9 km
Apogee: 547.8 km
Inclination: 53.2 °
Period: 95.4 minutes
Semi major axis: 6917 km
RCS: Unknown
Launch date: December 17, 2022
Source: United States (US)
Launch site: AIR FORCE EASTERN TEST RANGE (AFETR)
Your satellite tracking list
Your tracking list is empty




NASA's NSSDC Master Catalog

Two Line Element Set (TLE):
1 54804U 22175AY  23265.81668749  .00007543  00000-0  49137-3 0  9991
2 54804  53.2156 104.0770 0001392  89.6091 270.5060 15.08850902 44435
Source of the keplerian elements: AFSPC